Hot Springs, VA

4:27 PM EST on February 22, 2017 (GMT -0500)
Ingalls

Weather History for KHSP - December, 2010

Change the Weather History Date:

Thursday, December 30, 2010

  Actual Average Record
Temperature  
Mean Temperature 36 °F -  
Max Temperature 46 °F 33 °F 59 °F (2015)
Min Temperature 26 °F 20 °F 3 °F (2000)
Degree Days  
Heating Degree Days 29    
Moisture  
Dew Point 33 °F    
Average Humidity 86    
Maximum Humidity 100    
Minimum Humidity 71    
Precipitation  
Precipitation 0.00 in - - ()
Sea Level Pressure  
Sea Level Pressure 30.11 in    
Wind  
Wind Speed 6 mph (SSW)    
Max Wind Speed 14 mph    
Max Gust Speed -    
Visibility 10 miles    
Events      
Averages and records for this station are not official NWS values.
T = Trace of Precipitation, MM = Missing Value Source: NWS Daily Summary

Daily Weather History Graph

Daily Weather History Graph

Search for Another Location

Airport or City:

Trip Planner

Search our weather history database for the weather conditions in past years. The results will help you decide how hot, cold, wet, or windy it might be!

Date:

Astronomy

Dec. 30, 2010 Rise Set
Actual Time 7:34 AM EST 5:09 PM EST
Civil Twilight 7:05 AM EST 5:38 PM EST
Nautical Twilight 6:32 AM EST 6:11 PM EST
Astronomical Twilight 6:00 AM EST 6:43 PM EST
Moon 2:53 AM EST (12/30) 1:12 PM EST (12/30)
Length of Visible Light 10h 33m
Length of Day
9h 34m
Waning Crescent, 23% of the Moon is Illuminated
Dec 30
Waning Crescent
Jan 4
New
Jan 12
First Quarter
Jan 19
Full
Jan 26
Last Quarter

Hourly Weather History & Observations

Time (EST) Temp. Windchill Dew Point Humidity Pressure Visibility Wind Dir Wind Speed Gust Speed Precip Events Conditions
12:00 AM 26.6 °F - 26.6 °F 100% 30.08 in 10.0 mi Calm Calm - N/A   Clear
12:20 AM 28.4 °F - 26.6 °F 93% 30.08 in 10.0 mi Calm Calm - N/A   Clear
12:40 AM 28.4 °F - 24.8 °F 86% 30.07 in 10.0 mi Calm Calm - N/A   Clear
1:00 AM 26.6 °F 21.2 °F 24.8 °F 93% 30.07 in 10.0 mi SE 4.6 mph - N/A   Clear
1:20 AM 28.4 °F 24.6 °F 24.8 °F 86% 30.08 in 10.0 mi South 3.5 mph - N/A   Clear
1:40 AM 28.4 °F 22.2 °F 24.8 °F 86% 30.07 in 10.0 mi South 5.8 mph - N/A   Clear
2:00 AM 28.4 °F 22.2 °F 24.8 °F 86% 30.08 in 10.0 mi SSW 5.8 mph - N/A   Clear
2:20 AM 26.6 °F 21.2 °F 23.0 °F 86% 30.08 in 10.0 mi WSW 4.6 mph - N/A   Clear
3:00 AM 30.2 °F 22.6 °F 24.8 °F 80% 30.08 in 10.0 mi South 8.1 mph - N/A   Clear
3:20 AM 30.2 °F 22.6 °F 24.8 °F 80% 30.09 in 10.0 mi South 8.1 mph - N/A   Clear
3:40 AM 30.2 °F 21.9 °F 23.0 °F 75% 30.08 in 10.0 mi South 9.2 mph - N/A   Clear
4:00 AM 30.2 °F 20.8 °F 24.8 °F 80% 30.08 in 10.0 mi South 11.5 mph - N/A   Clear
4:20 AM 30.2 °F 20.8 °F 24.8 °F 80% 30.08 in 10.0 mi South 11.5 mph - N/A   Scattered Clouds
4:40 AM 32.0 °F 23.6 °F 24.8 °F 75% 30.08 in 10.0 mi South 10.4 mph - N/A   Mostly Cloudy
5:00 AM 32.0 °F 23.6 °F 24.8 °F 75% 30.08 in 10.0 mi South 10.4 mph - N/A   Scattered Clouds
5:20 AM 32.0 °F 24.8 °F 24.8 °F 75% 30.08 in 10.0 mi South 8.1 mph - N/A   Overcast
5:40 AM 33.8 °F 27.7 °F 26.6 °F 75% 30.11 in 10.0 mi SW 6.9 mph - N/A   Overcast
6:00 AM 32.0 °F 24.8 °F 26.6 °F 80% 30.11 in 10.0 mi WSW 8.1 mph - N/A   Overcast
6:20 AM 35.6 °F 28.6 °F 32.0 °F 87% 30.11 in 10.0 mi WSW 9.2 mph - N/A   Overcast
6:40 AM 35.6 °F 29.9 °F 33.8 °F 93% 30.12 in 10.0 mi WSW 6.9 mph - N/A   Overcast
7:00 AM 33.8 °F 27.0 °F 30.2 °F 87% 30.13 in 10.0 mi WSW 8.1 mph - N/A   Overcast
7:20 AM 32.0 °F 22.5 °F 28.4 °F 87% 30.14 in 10.0 mi WSW 12.7 mph - N/A   Overcast
7:40 AM 35.6 °F 26.6 °F 33.8 °F 93% 30.15 in 10.0 mi WSW 13.8 mph - N/A   Overcast
8:00 AM 35.6 °F 26.6 °F 33.8 °F 93% 30.15 in 10.0 mi WSW 13.8 mph - N/A   Overcast
8:20 AM 35.6 °F 26.6 °F 33.8 °F 93% 30.16 in 7.0 mi WSW 13.8 mph - N/A   Overcast
8:40 AM 35.6 °F 28.0 °F 33.8 °F 93% 30.16 in 10.0 mi WSW 10.4 mph - N/A   Overcast
9:00 AM 35.6 °F 27.5 °F 35.6 °F 100% 30.17 in 10.0 mi WSW 11.5 mph - N/A   Mostly Cloudy
9:20 AM 35.6 °F 29.2 °F 33.8 °F 93% 30.17 in 10.0 mi West 8.1 mph - N/A   Mostly Cloudy
9:40 AM 37.4 °F 30.8 °F 37.4 °F 100% 30.16 in 7.0 mi WSW 9.2 mph - N/A   Mostly Cloudy
10:00 AM 39.2 °F 33.0 °F 39.2 °F 100% 30.16 in 7.0 mi West 9.2 mph - N/A   Overcast
10:20 AM 39.2 °F 34.2 °F 39.2 °F 100% 30.17 in 7.0 mi SW 6.9 mph - N/A   Overcast
10:40 AM 39.2 °F 37.0 °F 39.2 °F 100% 30.17 in 10.0 mi WSW 3.5 mph - N/A   Mostly Cloudy
11:00 AM 39.2 °F 33.6 °F 39.2 °F 100% 30.16 in 5.0 mi West 8.1 mph - N/A   Scattered Clouds
11:20 AM 39.2 °F 33.6 °F 39.2 °F 100% 30.15 in 10.0 mi West 8.1 mph - N/A   Scattered Clouds
11:40 AM 42.8 °F 40.1 °F 41.0 °F 93% 30.15 in 10.0 mi South 4.6 mph - N/A   Mostly Cloudy
12:00 PM 44.6 °F - 41.0 °F 87% 30.13 in 10.0 mi Calm Calm - N/A   Overcast
12:20 PM 42.8 °F 41.1 °F 41.0 °F 93% 30.13 in 10.0 mi West 3.5 mph - N/A   Overcast
12:40 PM 42.8 °F 41.1 °F 39.2 °F 87% 30.12 in 10.0 mi WSW 3.5 mph - N/A   Overcast
1:00 PM 42.8 °F - 39.2 °F 87% 30.11 in 10.0 mi Calm Calm - N/A   Overcast
1:20 PM 42.8 °F - 39.2 °F 87% 30.11 in 10.0 mi Calm Calm - N/A   Overcast
1:40 PM 42.8 °F 41.1 °F 39.2 °F 87% 30.10 in 10.0 mi South 3.5 mph - N/A   Overcast
2:00 PM 42.8 °F 39.3 °F 39.2 °F 87% 30.10 in 10.0 mi South 5.8 mph - N/A   Overcast
2:20 PM 42.8 °F 40.1 °F 39.2 °F 87% 30.10 in 10.0 mi South 4.6 mph - N/A   Overcast
2:40 PM 42.8 °F 38.6 °F 39.2 °F 87% 30.10 in 10.0 mi South 6.9 mph - N/A   Overcast
3:00 PM 42.8 °F 40.1 °F 37.4 °F 81% 30.10 in 10.0 mi South 4.6 mph - N/A   Overcast
3:20 PM 44.6 °F 40.2 °F 37.4 °F 76% 30.10 in 10.0 mi South 8.1 mph - N/A   Mostly Cloudy
3:40 PM 44.6 °F 40.2 °F 37.4 °F 76% 30.10 in 10.0 mi South 8.1 mph - N/A   Scattered Clouds
4:00 PM 46.4 °F 44.3 °F 37.4 °F 71% 30.10 in 10.0 mi SSW 4.6 mph - N/A   Clear
4:20 PM 44.6 °F 43.1 °F 35.6 °F 71% 30.11 in 10.0 mi SSW 3.5 mph - N/A   Clear
4:40 PM 42.8 °F 40.1 °F 35.6 °F 76% 30.11 in 10.0 mi South 4.6 mph - N/A   Clear
5:00 PM 37.4 °F 32.8 °F 32.0 °F 81% 30.11 in 10.0 mi SSW 5.8 mph - N/A   Clear
5:20 PM 37.4 °F 33.8 °F 33.8 °F 87% 30.11 in 10.0 mi South 4.6 mph - N/A   Clear
5:40 PM 37.4 °F 32.8 °F 33.8 °F 87% 30.11 in 10.0 mi South 5.8 mph - N/A   Clear
6:00 PM 35.6 °F 30.7 °F 30.2 °F 81% 30.12 in 10.0 mi South 5.8 mph - N/A   Clear
6:20 PM 35.6 °F 29.9 °F 30.2 °F 81% 30.12 in 10.0 mi South 6.9 mph - N/A   Clear
6:40 PM 39.2 °F 34.2 °F 33.8 °F 81% 30.13 in 10.0 mi SSW 6.9 mph - N/A   Clear
7:00 PM 39.2 °F 35.0 °F 33.8 °F 81% 30.13 in 10.0 mi SSW 5.8 mph - N/A   Clear
7:20 PM 39.2 °F 33.0 °F 33.8 °F 81% 30.13 in 10.0 mi South 9.2 mph - N/A   Clear
7:40 PM 35.6 °F 29.9 °F 30.2 °F 81% 30.13 in 10.0 mi SSW 6.9 mph - N/A   Clear
8:00 PM 37.4 °F 32.1 °F 32.0 °F 81% 30.12 in 10.0 mi South 6.9 mph - N/A   Clear
8:20 PM 37.4 °F 31.4 °F 30.2 °F 75% 30.13 in 10.0 mi South 8.1 mph - N/A   Clear
8:40 PM 37.4 °F 32.1 °F 30.2 °F 75% 30.13 in 10.0 mi SSW 6.9 mph - N/A   Clear
9:00 PM 37.4 °F 33.8 °F 30.2 °F 75% 30.13 in 10.0 mi SSW 4.6 mph - N/A   Clear
9:20 PM 39.2 °F 35.0 °F 33.8 °F 81% 30.13 in 10.0 mi SW 5.8 mph - N/A   Clear
9:40 PM 37.4 °F 32.8 °F 32.0 °F 81% 30.14 in 10.0 mi West 5.8 mph - N/A   Clear
10:00 PM 39.2 °F 34.2 °F 32.0 °F 75% 30.14 in 10.0 mi SW 6.9 mph - N/A   Clear
10:20 PM 39.2 °F 35.0 °F 32.0 °F 75% 30.14 in 10.0 mi SW 5.8 mph - N/A   Clear
10:40 PM 39.2 °F 33.6 °F 32.0 °F 75% 30.14 in 10.0 mi WSW 8.1 mph - N/A   Clear
11:00 PM 37.4 °F 30.3 °F 32.0 °F 81% 30.14 in 10.0 mi SW 10.4 mph - N/A   Clear
11:40 PM 42.8 °F 37.0 °F 32.0 °F 66% 30.14 in 10.0 mi SW 10.4 mph - N/A   Clear